STARLINK Q

Last updated on June 19, 2020, 12:02 a.m. UTC

1 45744U 20038Q   20170.83334491  .03293601  10612-1  71697-2 0  9999
2 45744  53.0020 271.4333 0099064  67.3691 254.8096 15.91406961  1950

Satellite is not in orbit.